[[{"header":{"parameterUnit":"m.s-1","parameterCategory":1,"la1":30.2991,"la2":30.254,"lo1":-89.0895,"lo2":-89.0444,"dy":0.0017,"dx":0.0017,"nx":28,"ny":28,"refTime":"2025-08-15T09:00:00:Z","depth":0,"parameterNumber":2,"parameterNumberName":"U-component_of_WINDS"},"data":[0,0,0,0,0,0,0,0,0,0,0,0,0,0,0,0,0,0,0,0,0,0,0,0,0,0,0,0,0,0,0,0,0,0,0,0,0,0,0,0,0,0,0,0,0,0,0,0,0,0,0,0,0,0,0,0,0,0,1.3325,1.3325,0,1.3352,1.3352,1.3352,1.3275,1.3272,1.327,1.3268,1.3296,1.3299,1.3302,0,0,0,0,0,0,0,0,0,0,0,0,0,1.3208,1.321,1.3325,1.3325,1.3326,1.3352,1.3352,1.3352,1.3275,1.3272,1.3269,1.3267,1.3295,1.3299,1.3303,0,0,0,0,0,0,0,0,0,0,0,0,0,1.3249,1.3211,1.3325,1.329,1.3287,1.3352,1.3352,1.3353,1.3276,1.3272,1.3268,1.3265,1.3294,1.3299,1.3303,1.3403,0,0,1.3317,1.3319,0,0,0,0,0,0,0,0,1.3247,1.3254,1.3295,1.3293,1.3289,1.3306,1.3321,1.3369,1.3277,1.328,1.3268,1.3263,1.3303,1.3306,1.3319,1.3404,1.3405,1.3317,1.332,1.3322,1.3323,0,0,0,0,0,0,0,1.3244,1.3252,1.3335,1.3296,1.3292,1.3274,1.3275,1.333,1.3311,1.328,1.3274,1.3278,1.33,1.3315,1.3319,1.3406,1.3317,1.3321,1.3324,1.3326,1.3574,1.3578,0,0,0,0,0,0,1.3246,1.325,1.3335,1.3336,1.3259,1.3279,1.3281,1.3304,1.331,1.3308,1.3281,1.3274,1.3309,1.3314,1.332,1.3438,1.3322,1.3326,1.3329,1.3571,1.3575,1.358,0,0,0,0,0,0,1.3243,1.3254,1.3334,1.3292,1.33,1.3284,1.3312,1.3307,1.3321,1.3312,1.3308,1.3299,1.3306,1.3314,1.3383,1.3437,1.3328,1.3332,1.3566,1.3572,1.3577,1.3674,0,0,0,0,0,0,1.324,1.3254,1.3291,1.3293,1.3303,1.3396,1.3315,1.331,1.3329,1.3321,1.3328,1.3326,1.3304,1.3377,1.3387,1.3442,1.3336,1.3561,1.3569,1.3576,1.3665,1.3682,1.3696,0,0,0,0,0,1.3236,1.3317,1.3293,1.3304,1.3349,1.3399,1.3405,1.3378,1.3334,1.3372,1.3365,1.3325,1.343,1.3384,1.3396,1.3452,1.3557,1.3567,1.3575,1.3659,1.3679,1.3696,0,0,0,0,0,0,1.3322,1.3317,1.329,1.3374,1.3388,1.3386,1.3433,1.34,1.3427,1.3418,1.3384,1.3387,1.3462,1.3464,1.3413,1.3549,1.3486,1.3498,1.3546,1.3565,1.358,1.3578,1.3339,0,0,0,0,0,1.335,1.3391,1.3384,1.3459,1.3467,1.3449,1.347,1.3448,1.3461,1.3466,1.3465,1.348,1.3516,1.354,1.3573,1.3665,1.3666,1.371,1.3725,1.3738,1.3748,1.3798,1.3818,1.3608,1.3608,1.3608,0,0,1.341,1.3412,1.344,1.3476,1.3484,1.3527,1.3454,1.3503,1.3535,1.3474,1.3539,1.3539,1.3553,1.3634,1.367,1.3638,1.3806,1.3749,1.3759,1.3763,1.3809,1.3829,1.3847,1.3614,1.3613,1.3612,0,0,1.354,1.3546,1.3608,1.3618,1.3631,1.3619,1.3634,1.3638,1.3635,1.37,1.3655,1.3693,1.3756,1.3768,1.3782,1.3918,1.3882,1.3929,1.401,1.4059,1.4075,1.409,1.4139,1.4157,1.394,1.394,1.394,0,1.3612,1.3675,1.3645,1.3697,1.3715,1.3661,1.3725,1.3736,1.3759,1.3773,1.3737,1.3815,1.382,1.3904,1.3937,1.3951,1.3967,1.3929,1.4075,1.4089,1.4102,1.4149,1.4167,1.3946,1.3945,1.3945,1.3944,0,1.3764,1.3809,1.3858,1.3882,1.3905,1.3962,1.3941,1.3969,1.3945,1.3937,1.4004,1.4009,1.4042,1.406,1.4038,1.4141,1.4121,1.4081,1.4016,1.4129,1.4172,1.4189,1.3954,1.3952,1.395,1.3949,0,0,1.3949,1.3955,1.3974,1.3985,1.3995,1.4029,1.4085,1.4117,1.4141,1.4159,1.4206,1.426,1.4223,1.4239,1.4218,1.4261,1.4369,1.4215,1.4215,1.4244,1.4484,1.4515,1.4536,1.4345,1.4348,1.4351,1.4483,0,1.4078,1.4173,1.4147,1.4242,1.4283,1.4234,1.4282,1.4294,1.4288,1.4323,1.4316,1.4355,1.4303,1.4313,1.4353,1.4347,1.4417,1.4337,1.4389,1.4391,1.4387,1.4558,1.459,1.4715,1.45,1.4502,1.4504,0,1.4241,1.4265,1.4364,1.4369,1.4385,1.4429,1.4457,1.449,1.4503,1.4496,1.4515,1.4485,1.454,1.4476,1.4552,1.4498,1.4518,1.4519,1.4523,1.4527,1.4455,1.4567,1.4753,1.4772,1.4531,1.4528,1.4527,0,1.4366,1.4424,1.4491,1.4501,1.4508,1.4541,1.4545,1.4555,1.4576,1.46,1.4613,1.4644,1.4661,1.4686,1.4665,1.462,1.4745,1.4678,1.4741,1.4742,1.477,1.4768,1.4962,1.4782,1.4782,1.4781,1.4781,0,1.4513,1.4576,1.4547,1.4589,1.4658,1.4628,1.4698,1.4696,1.4706,1.4746,1.4705,1.4744,1.4714,1.4751,1.4735,1.4801,1.4809,1.4805,1.48,1.4809,1.4809,1.4821,1.4812,1.4786,1.4785,1.4784,1.4783,0,1.4665,1.4648,1.4718,1.4719,1.4721,1.4772,1.4773,1.4812,1.4802,1.4854,1.4865,1.4851,1.4892,1.4874,1.4917,1.4906,1.4991,1.4975,1.4987,1.4983,1.5046,1.5041,1.5255,1.5282,1.5084,1.5086,1.5088,0,1.476,1.4807,1.4813,1.4837,1.4845,1.4884,1.4905,1.4878,1.4902,1.4922,1.4958,1.4995,1.5024,1.5092,1.5086,1.5119,1.5103,1.5176,1.5108,1.5115,1.5105,1.5102,1.5107,1.519,1.5192,1.5194,1.5195,0,1.493,1.492,1.4952,1.4982,1.5009,1.5031,1.505,1.5072,1.5046,1.5075,1.5116,1.5139,1.5183,1.5221,1.525,1.5255,1.5222,1.5217,1.5233,1.5243,1.5248,1.5246,1.5025,1.5212,1.521,1.5209,1.5208,1.5208,1.5057,1.5096,1.5107,1.5145,1.5156,1.5175,1.5211,1.5207,1.5241,1.5274,1.5257,1.5305,1.5318,1.5353,1.5363,1.5401,1.5372,1.5396,1.5402,1.5408,1.5417,1.5242,1.5406,1.5405,1.5405,1.5405,1.5404,0,1.5225,1.523,1.5265,1.5292,1.5322,1.5288,1.5307,1.5334,1.5377,1.5392,1.5421,1.5469,1.5505,1.5503,1.5536,1.5567,1.5553,1.5577,1.5575,1.5577,1.544,1.5423,1.5588,1.5588,1.5588,1.5588,1.5588,1.5588,1.5316,1.5382,1.5373,1.5444,1.5448,1.5496,1.551,1.5527,1.5538,1.5594,1.5624,1.5622,1.5629,1.5664,1.5696,1.5694,1.5709,1.5739,1.5732,1.5604,1.5586,1.5569,1.5552,1.5742,1.5743,1.5865,1.5866,1.5867]},{"header":{"parameterUnit":"m.s-1","parameterCategory":1,"la1":30.2991,"la2":30.254,"lo1":-89.0895,"lo2":-89.0444,"dy":0.0017,"dx":0.0017,"nx":28,"ny":28,"refTime":"2025-08-15T09:00:00:Z","depth":0,"parameterNumber":3,"parameterNumberName":"V-component_of_WINDS"},"data":[0,0,0,0,0,0,0,0,0,0,0,0,0,0,0,0,0,0,0,0,0,0,0,0,0,0,0,0,0,0,0,0,0,0,0,0,0,0,0,0,0,0,0,0,0,0,0,0,0,0,0,0,0,0,0,0,0,0,-0.7492,-0.7492,0,-0.7475,-0.7475,-0.7475,-0.7456,-0.7456,-0.7455,-0.7455,-0.7437,-0.7436,-0.7436,0,0,0,0,0,0,0,0,0,0,0,0,0,-0.7509,-0.7508,-0.7492,-0.7492,-0.7492,-0.7475,-0.7475,-0.7475,-0.7456,-0.7456,-0.7455,-0.7455,-0.7437,-0.7436,-0.7436,0,0,0,0,0,0,0,0,0,0,0,0,0,-0.7498,-0.7508,-0.7492,-0.7481,-0.7479,-0.7475,-0.7475,-0.7475,-0.7456,-0.7456,-0.7455,-0.7455,-0.7437,-0.7436,-0.7436,-0.7442,0,0,-0.7435,-0.7435,0,0,0,0,0,0,0,0,-0.7498,-0.7497,-0.7483,-0.7481,-0.748,-0.7467,-0.7474,-0.7464,-0.7456,-0.7465,-0.7455,-0.7455,-0.7447,-0.7446,-0.7444,-0.7442,-0.7441,-0.7435,-0.7435,-0.7435,-0.7435,0,0,0,0,0,0,0,-0.7499,-0.7498,-0.7486,-0.7482,-0.7481,-0.7476,-0.7474,-0.7472,-0.7458,-0.7464,-0.7463,-0.7461,-0.7446,-0.7444,-0.7443,-0.744,-0.7435,-0.7435,-0.7435,-0.7434,-0.7444,-0.7444,0,0,0,0,0,0,-0.7502,-0.7498,-0.7486,-0.7485,-0.7488,-0.7476,-0.7474,-0.7472,-0.7458,-0.7456,-0.7461,-0.746,-0.7445,-0.7443,-0.7442,-0.7449,-0.7435,-0.7434,-0.7434,-0.7443,-0.7444,-0.7444,0,0,0,0,0,0,-0.7502,-0.7501,-0.7487,-0.7491,-0.7489,-0.7476,-0.7474,-0.7472,-0.7469,-0.7456,-0.7454,-0.7461,-0.7444,-0.7443,-0.7443,-0.7448,-0.7434,-0.7434,-0.7443,-0.7443,-0.7444,-0.7463,0,0,0,0,0,0,-0.7503,-0.7501,-0.7503,-0.7492,-0.7489,-0.7488,-0.7474,-0.7472,-0.7469,-0.7467,-0.7456,-0.7453,-0.7444,-0.7443,-0.7442,-0.7448,-0.7434,-0.7442,-0.7443,-0.7444,-0.7461,-0.7464,-0.7466,0,0,0,0,0,-0.7503,-0.7509,-0.7503,-0.7502,-0.7492,-0.7488,-0.7487,-0.7476,-0.7469,-0.7471,-0.7463,-0.7454,-0.7448,-0.7444,-0.7442,-0.7447,-0.7442,-0.7443,-0.7444,-0.746,-0.7463,-0.7466,0,0,0,0,0,0,-0.7521,-0.7507,-0.7501,-0.7503,-0.7497,-0.7485,-0.7487,-0.7479,-0.7474,-0.7473,-0.746,-0.7457,-0.7459,-0.7453,-0.7448,-0.7453,-0.7443,-0.7444,-0.7457,-0.7459,-0.7462,-0.7463,-0.7433,0,0,0,0,0,-0.7525,-0.7523,-0.7511,-0.7514,-0.7512,-0.75,-0.7498,-0.749,-0.7483,-0.7481,-0.7472,-0.7466,-0.7463,-0.7461,-0.7457,-0.7461,-0.7458,-0.7464,-0.7466,-0.7468,-0.7469,-0.7471,-0.7473,-0.7447,-0.7447,-0.7447,0,0,-0.7533,-0.7526,-0.7525,-0.7518,-0.7512,-0.7511,-0.7498,-0.7497,-0.7496,-0.748,-0.748,-0.7474,-0.7466,-0.7468,-0.7469,-0.7463,-0.7475,-0.7469,-0.7471,-0.747,-0.7472,-0.7475,-0.7477,-0.7448,-0.7448,-0.7448,0,0,-0.7548,-0.7542,-0.7544,-0.7539,-0.7531,-0.7523,-0.7524,-0.7513,-0.7509,-0.7509,-0.7497,-0.7496,-0.749,-0.7485,-0.7482,-0.7496,-0.7487,-0.7495,-0.7507,-0.7509,-0.7511,-0.7513,-0.7518,-0.752,-0.7496,-0.7496,-0.7496,0,-0.7559,-0.7557,-0.7546,-0.7546,-0.7543,-0.753,-0.7532,-0.7527,-0.7519,-0.7517,-0.7511,-0.7505,-0.7498,-0.75,-0.7503,-0.7501,-0.7501,-0.7496,-0.7512,-0.7514,-0.7515,-0.752,-0.7522,-0.7497,-0.7497,-0.7497,-0.7497,0,-0.7571,-0.757,-0.7572,-0.7565,-0.7562,-0.7563,-0.7553,-0.7552,-0.7545,-0.7538,-0.7538,-0.753,-0.7525,-0.7525,-0.7517,-0.7525,-0.7522,-0.7514,-0.7504,-0.7519,-0.7523,-0.7525,-0.7499,-0.7498,-0.7498,-0.7498,0,0,-0.7595,-0.7583,-0.7584,-0.758,-0.7571,-0.757,-0.7571,-0.7566,-0.7566,-0.756,-0.7561,-0.7557,-0.755,-0.7547,-0.7539,-0.7541,-0.7553,-0.7533,-0.7533,-0.7537,-0.7562,-0.7568,-0.757,-0.7548,-0.7548,-0.7548,-0.7563,0,-0.7608,-0.7609,-0.76,-0.7603,-0.7602,-0.759,-0.7591,-0.7585,-0.7579,-0.7577,-0.7571,-0.7568,-0.7559,-0.7557,-0.7559,-0.7552,-0.7558,-0.755,-0.7548,-0.7548,-0.755,-0.7572,-0.7578,-0.7592,-0.7564,-0.7565,-0.7565,0,-0.7623,-0.7619,-0.7623,-0.7614,-0.7613,-0.7614,-0.761,-0.7608,-0.7602,-0.7598,-0.7594,-0.7586,-0.7586,-0.7577,-0.7578,-0.7573,-0.7571,-0.7568,-0.7568,-0.7567,-0.7557,-0.7572,-0.7596,-0.7598,-0.7567,-0.7567,-0.7567,0,-0.764,-0.7636,-0.7638,-0.7635,-0.7626,-0.7627,-0.7623,-0.7616,-0.7614,-0.761,-0.7609,-0.7605,-0.7603,-0.7601,-0.7591,-0.7586,-0.7593,-0.7583,-0.759,-0.759,-0.7591,-0.7591,-0.7615,-0.7591,-0.7591,-0.7591,-0.7591,0,-0.7656,-0.7658,-0.7646,-0.7647,-0.7649,-0.7639,-0.7642,-0.7637,-0.7631,-0.7631,-0.7621,-0.7621,-0.7609,-0.7608,-0.7601,-0.7603,-0.7602,-0.7598,-0.7596,-0.7599,-0.76,-0.7598,-0.7596,-0.7591,-0.7591,-0.7591,-0.7591,0,-0.7675,-0.7667,-0.7668,-0.7659,-0.7657,-0.7659,-0.7652,-0.7653,-0.7646,-0.7646,-0.7646,-0.7636,-0.7634,-0.7625,-0.7621,-0.7616,-0.7621,-0.7617,-0.7623,-0.7622,-0.7629,-0.7628,-0.7652,-0.7655,-0.7629,-0.7629,-0.7629,0,-0.7685,-0.7687,-0.7679,-0.7678,-0.7675,-0.7674,-0.7672,-0.7663,-0.7661,-0.7655,-0.7657,-0.7654,-0.7652,-0.765,-0.7642,-0.7639,-0.7635,-0.7644,-0.7635,-0.7638,-0.7636,-0.7636,-0.7636,-0.7646,-0.7646,-0.7647,-0.7647,0,-0.7704,-0.7701,-0.7699,-0.7696,-0.7694,-0.7691,-0.7688,-0.7688,-0.7677,-0.7676,-0.7675,-0.7673,-0.767,-0.7667,-0.7664,-0.7659,-0.7652,-0.765,-0.7651,-0.7654,-0.7658,-0.7656,-0.7628,-0.7649,-0.7649,-0.7649,-0.7649,-0.7649,-0.772,-0.7721,-0.7716,-0.7714,-0.7711,-0.7708,-0.7708,-0.7703,-0.7701,-0.7698,-0.7692,-0.7692,-0.7687,-0.7681,-0.7677,-0.7677,-0.7672,-0.7674,-0.7675,-0.7675,-0.7677,-0.7658,-0.7676,-0.7676,-0.7676,-0.7676,-0.7676,0,-0.7738,-0.7735,-0.7733,-0.7729,-0.7728,-0.7722,-0.7718,-0.7717,-0.7717,-0.7713,-0.7711,-0.771,-0.7708,-0.7701,-0.7699,-0.77,-0.7696,-0.7699,-0.7699,-0.7698,-0.7681,-0.768,-0.7702,-0.7702,-0.7702,-0.7702,-0.7702,-0.7702,-0.7748,-0.775,-0.7746,-0.7746,-0.7743,-0.7742,-0.7741,-0.7738,-0.7735,-0.7734,-0.7733,-0.7729,-0.7723,-0.7721,-0.7719,-0.7717,-0.7717,-0.7721,-0.7718,-0.7702,-0.7699,-0.7697,-0.7696,-0.7721,-0.7721,-0.7736,-0.7736,-0.7736]}]]